Duluth, MN

9:32 AM CDT on April 23, 2017 (GMT -0500)
Duluth International

Weather History for KDLH - November, 2013

Change the Weather History Date:

Sunday, November 10, 2013

  Actual Average Record
Temperature  
Mean Temperature 32 °F 32 °F  
Max Temperature 40 °F 39 °F 64 °F (1917)
Min Temperature 24 °F 25 °F 1 °F (1986)
Degree Days  
Heating Degree Days 33 33  
Month to date heating degree days 312 310  
Since 1 July heating degree days 1164 1435  
Cooling Degree Days 0 0  
Month to date cooling degree days 0 0  
Year to date cooling degree days 375 204  
Moisture  
Dew Point 25 °F    
Average Humidity 66    
Maximum Humidity 82    
Minimum Humidity 50    
Precipitation  
Precipitation 0.02 in 0.08 in 2.26 in (1998)
Month to date precipitation 0.41 0.75  
Year to date precipitation 27.19 28.41  
Snow  
Snow 0.50 in 0.40 in 7.20 in (1998)
Month to date snowfall 1.1 3.1  
Since 1 July snowfall 1.4 5.5  
Since 1 September snowfall 1.4 5.5  
Snow Depth T in    
Sea Level Pressure  
Sea Level Pressure 30.14 in    
Wind  
Wind Speed 12 mph (WNW)    
Max Wind Speed 22 mph    
Max Gust Speed 29 mph    
Visibility 8 miles    
Events Snow    
T = Trace of Precipitation, MM = Missing Value Source: NWS Daily Summary

Daily Weather History Graph

Daily Weather History Graph

Search for Another Location

Airport or City:

Trip Planner

Search our weather history database for the weather conditions in past years. The results will help you decide how hot, cold, wet, or windy it might be!

Date:

Astronomy

Nov. 10, 2013 Rise Set
Actual Time 7:04 AM CST 4:40 PM CST
Civil Twilight 6:32 AM CST 5:12 PM CST
Nautical Twilight 5:55 AM CST 5:49 PM CST
Astronomical Twilight 5:20 AM CST 6:24 PM CST
Moon 1:09 PM CST (11/10) No Moon Set
Length of Visible Light 10h 40m
Length of Day
9h 35m
First Quarter, 56% of the Moon is Illuminated
Nov 10
First Quarter
Nov 17
Full
Nov 25
Last Quarter
Dec 2
New
Dec 9
First Quarter

Hourly Weather History & Observations

Time (CST) Temp. Windchill Dew Point Humidity Pressure Visibility Wind Dir Wind Speed Gust Speed Precip Events Conditions
12:02 AM 35.6 °F 27.1 °F 28.4 °F 75% 30.06 in 9.0 mi WNW 12.7 mph 23.0 mph 0.00 in Snow Light Snow
12:55 AM 35.1 °F 25.5 °F 28.9 °F 78% 30.14 in 9.0 mi NW 15.0 mph 21.9 mph 0.00 in Snow Light Snow
1:55 AM 34.0 °F 24.6 °F 28.9 °F 82% 30.16 in 9.0 mi NW 13.8 mph - 0.00 in Snow Light Snow
2:17 AM 33.8 °F 24.3 °F 28.4 °F 81% 30.12 in 9.0 mi NW 13.8 mph - 0.00 in Snow Light Snow
2:41 AM 33.8 °F 24.8 °F 28.4 °F 81% 30.12 in 9.0 mi NW 12.7 mph 19.6 mph 0.00 in Snow Light Snow
2:55 AM 34.0 °F 26.0 °F 28.0 °F 79% 30.19 in 9.0 mi NW 10.4 mph - 0.00 in Snow Light Snow
3:27 AM 33.8 °F 24.8 °F 26.6 °F 75% 30.14 in 9.0 mi NW 12.7 mph 21.9 mph 0.00 in Snow Light Snow
3:55 AM 33.1 °F 24.9 °F 25.0 °F 72% 30.21 in 10.0 mi WNW 10.4 mph - 0.00 in   Mostly Cloudy
4:35 AM 33.8 °F 28.6 °F 26.6 °F 75% 30.17 in 10.0 mi WNW 5.8 mph - N/A   Mostly Cloudy
4:55 AM 33.1 °F 26.1 °F 27.0 °F 78% 30.25 in 9.0 mi WNW 8.1 mph - 0.00 in Snow Light Snow
5:03 AM 33.8 °F 27.0 °F 28.4 °F 81% 30.18 in 10.0 mi WNW 8.1 mph - 0.00 in   Overcast
5:51 AM 32.0 °F 25.6 °F 26.6 °F 80% 30.20 in 10.0 mi WNW 6.9 mph - 0.00 in   Scattered Clouds
5:55 AM 32.0 °F 26.4 °F 27.0 °F 82% 30.25 in 10.0 mi WNW 5.8 mph - 0.00 in   Mostly Cloudy
6:15 AM 30.2 °F 22.6 °F 26.6 °F 86% 30.20 in 10.0 mi West 8.1 mph - N/A   Mostly Cloudy
6:55 AM 33.1 °F 26.1 °F 26.1 °F 75% 30.26 in 10.0 mi WNW 8.1 mph - N/A   Mostly Cloudy
7:25 AM 30.2 °F 23.4 °F 24.8 °F 80% 30.20 in 10.0 mi West 6.9 mph - N/A   Scattered Clouds
7:55 AM 32.0 °F 26.4 °F 26.1 °F 79% 30.26 in 10.0 mi West 5.8 mph - N/A   Mostly Cloudy
8:55 AM 33.1 °F 24.9 °F 24.1 °F 70% 30.27 in 10.0 mi WNW 10.4 mph - N/A   Overcast
9:55 AM 34.0 °F 26.0 °F 24.1 °F 67% 30.26 in 10.0 mi West 10.4 mph - N/A   Mostly Cloudy
10:47 AM 37.4 °F 28.9 °F 24.8 °F 60% 30.19 in 10.0 mi WSW 13.8 mph - N/A   Partly Cloudy
10:55 AM 37.0 °F 29.3 °F 25.0 °F 62% 30.24 in 10.0 mi WSW 11.5 mph - N/A   Partly Cloudy
11:55 AM 37.9 °F 29.2 °F 25.0 °F 60% 30.21 in 10.0 mi WSW 15.0 mph - N/A   Partly Cloudy
12:55 PM 39.0 °F 30.6 °F 23.0 °F 53% 30.19 in 10.0 mi WSW 15.0 mph - N/A   Clear
1:55 PM 39.0 °F 30.3 °F 23.0 °F 53% 30.16 in 10.0 mi WSW 16.1 mph 21.9 mph N/A   Clear
2:55 PM 39.0 °F 30.6 °F 23.0 °F 53% 30.14 in 10.0 mi WSW 15.0 mph - N/A   Scattered Clouds
3:55 PM 39.0 °F 30.6 °F 23.0 °F 53% 30.12 in 10.0 mi WSW 15.0 mph 23.0 mph N/A   Scattered Clouds
4:55 PM 36.0 °F 28.0 °F 23.0 °F 59% 30.11 in 10.0 mi WSW 11.5 mph - N/A   Scattered Clouds
5:55 PM 36.0 °F 27.5 °F 24.1 °F 62% 30.11 in 10.0 mi WSW 12.7 mph - N/A   Scattered Clouds
6:55 PM 36.0 °F 27.5 °F 24.1 °F 62% 30.09 in 10.0 mi WSW 12.7 mph - N/A   Overcast
7:55 PM 36.0 °F 27.1 °F 25.0 °F 64% 30.09 in 10.0 mi West 13.8 mph 21.9 mph N/A   Overcast
8:45 PM 33.8 °F 23.5 °F 26.6 °F 75% 30.03 in 1.8 mi West 16.1 mph - 0.00 in Snow Light Snow
8:55 PM 34.0 °F 25.5 °F 28.0 °F 79% 30.09 in 2.0 mi West 11.5 mph - 0.00 in Snow Light Snow
9:02 PM 33.8 °F 24.8 °F 28.4 °F 81% 30.04 in 3.0 mi West 12.7 mph - 0.00 in Snow Light Snow
9:07 PM 33.8 °F 23.9 °F 28.4 °F 81% 30.04 in 1.8 mi West 15.0 mph - 0.00 in Snow Light Snow
9:39 PM 33.8 °F 25.8 °F 28.4 °F 81% 30.03 in 2.5 mi West 10.4 mph - 0.01 in Snow Light Snow
9:52 PM 33.8 °F 24.8 °F 28.4 °F 81% 30.04 in 4.0 mi West 12.7 mph - 0.01 in Snow Light Snow
9:55 PM 33.1 °F 23.4 °F 28.9 °F 85% 30.10 in 4.0 mi West 13.8 mph - 0.01 in Snow Light Snow
10:03 PM 33.8 °F 23.9 °F 28.4 °F 81% 30.05 in 1.8 mi NW 15.0 mph 23.0 mph 0.00 in Snow Light Snow
10:09 PM 30.2 °F 19.8 °F 24.8 °F 80% 30.05 in 1.0 mi NNW 13.8 mph 27.6 mph 0.00 in Snow Light Snow
10:11 PM 30.2 °F 18.5 °F 24.8 °F 80% 30.05 in 0.8 mi NNW 17.3 mph 27.6 mph 0.00 in Snow Light Snow
10:20 PM 28.4 °F 15.8 °F 24.8 °F 86% 30.05 in 1.2 mi NNW 18.4 mph 23.0 mph 0.00 in Snow Light Snow
10:55 PM 28.9 °F 17.7 °F 23.0 °F 78% 30.12 in 1.8 mi NNW 15.0 mph 20.7 mph 0.01 in Snow Light Snow
10:58 PM 28.4 °F 15.8 °F 23.0 °F 80% 30.06 in 2.0 mi NNW 18.4 mph 26.5 mph 0.00 in Snow Light Snow
11:08 PM 26.6 °F 14.7 °F 19.4 °F 74% 30.07 in 8.0 mi NW 15.0 mph 28.8 mph 0.00 in Snow Light Snow
11:21 PM 26.6 °F 13.8 °F 15.8 °F 64% 30.07 in 9.0 mi NNW 17.3 mph 24.2 mph 0.00 in Snow Light Snow
11:55 PM 24.1 °F 11.5 °F 14.0 °F 65% 30.14 in 10.0 mi NNW 15.0 mph 26.5 mph 0.00 in   Overcast